Regional Weather Roundup
Issued by NWS Cleveland, OH

Home | Current Version | Previous Version | Graphics & Text | Print | Product List | Glossary On
Versions: 1 2 3 4 5 6 7 8 9 10 11 12 13 14 15 16 17 18 19 20 21 22 23 24 25 26 27 28 29 30 31 32 33 34 35 36 37 38 39 40 41 42 43 44 45 46 47 48 49 50
282
ASUS41 KCLE 191900
RWRCLE
OHIO REGIONAL WEATHER ROUNDUP
NATIONAL WEATHER SERVICE WILMINGTON, OH
200 PM EST SUN FEB 19 2017

NOTE: "FAIR" INDICATES FEW OR NO CLOUDS BELOW 12,000 FEET WITH NO
SIGNIFICANT WEATHER AND/OR OBSTRUCTIONS TO VISIBILITY.

OHZ001>008-015>018-024>027-034-035-043-044-192000-
   NORTHWEST OHIO

CITY           SKY/WX    TMP DP  RH WIND       PRES   REMARKS
DEFIANCE       FAIR      61  37  41 VRB5      30.04S
FINDLAY        FAIR      63  37  38 W14       30.03S
TOLEDO EXPRESS FAIR      62  35  36 W12       30.02R
TOLEDO EXEC    FAIR      64  34  32 W10       30.02S
LIMA           FAIR      61  43  51 W9        30.04S
$$

OHZ009>014-019>023-028>033-038-089-192000-
   NORTHEAST OHIO

CITY           SKY/WX    TMP DP  RH WIND       PRES   REMARKS
CLE-HOPKINS    FAIR      64  32  30 NW13      30.02S
CLE-LAKEFRONT  FAIR      46  37  71 W7        30.00F
CUY CO. ARPT   SUNNY     55  37  50 NW18      30.01F
LORAIN-ELYRIA  FAIR      60  37  42 W14       30.01S
ASHTABULA      FAIR      57  36  45 W13       29.98F
AKRON-CANTON   FAIR      64  35  34 NW14      30.00S
WOOSTER        NOT AVBL
MANSFIELD      FAIR      60  35  39 W12       30.02F
YOUNGSTOWN     FAIR      61  34  36 W10       29.97F
$$

OHZ042-051>053-060>062-070>072-077>081-192000-
  SOUTHWEST OHIO

CITY           SKY/WX    TMP DP  RH WIND       PRES   REMARKS
CINC-COVINGTON CLOUDY    55  47  74 W6        30.09F
CINC-LUNKEN    CLOUDY    55  48  77 S3        30.10F
HAMILTON       CLOUDY    55  47  74 VRB5      30.10F
DAYTON         NOT AVBL
WRIGHT-PAT AFB PTSUNNY   53  47  82 S8        30.07F
DAYTON GENERAL CLOUDY    50  45  83 SW5       30.08S HAZE
WILMINGTON     CLOUDY    50  46  86 W8        30.07F FOG
$$

OHZ036-037-039>041-045>050-054>059-063>069-073>076-082>088-192000-
  CENTRAL AND SOUTHEAST OHIO

CITY           SKY/WX    TMP DP  RH WIND       PRES   REMARKS
COLUMBUS       PTSUNNY   54  44  69 S8        30.06F
OSU AIRPORT    FAIR      55  46  71 SW12      30.05F
BOLTON FIELD   CLOUDY    52  46  82 SW10      30.07F
RICKENBACK AFB NOT AVBL
NEWARK         FAIR      54  45  71 SW9       30.05F
MARION         FAIR      62  36  37 W10G20    30.03F
LANCASTER      CLOUDY    51  45  79 W8        30.09S HAZE
ZANESVILLE     FAIR      55  44  66 SW10      30.05F
NEW PHILLY     FAIR      63  40  42 W8        30.01F
$$




USA.gov is the U.S. government's official web portal to all federal, state and local government web resources and services.